User: anonymous
Location: Unspecified
(0.0000°N, 0.0000°E)
Time: 11:48:06
(UTC+02:00)
Language:

Cosmos 540 Rocket - Orbit

View from above orbital plane
View from above orbital plane
View from above satellite
View from above satellite

Ground track
Ground track

The orbit data is extracted from the following two-line orbital elements,

1 06324U 72104B   14272.14712421  .00000259  00000-0  85184-4 0  3706
2 06324 074.0767 144.0283 0009149 185.7205 289.8966 14.42980578192469
Epoch (UTC): 29 September 2014 03:31:51
Eccentricity: 0.0009149
inclination: 74.0767°
perigee height: 742 km
apogee height: 755 km
right ascension of ascending node: 144.0283°
argument of perigee: 185.7205°
revolutions per day: 14.42980578
mean anomaly at epoch: 289.8966°
orbit number at epoch: 19246

The dashed part of the orbit path shows where the satellite is in the earth's shadow,  

DLR